Location: *
(51.9321°S, 170.3289°W)
Time: 20:21:45
(UTC+00:00)

Daily predictions for brighter satellites

Satellite Brightness Start Highest point End
(mag) Time Altitude Azimuth Time Altitude Azimuth Time Altitude Azimuth
Cosmos 1943 Rocket 4.4 12:32:18 21° SSE 12:32:18 21° SSE 12:34:14 10° SSE
Cosmos 2278 Rocket 4.4 12:41:53 21° S 12:41:53 21° S 12:44:06 10° SSE
USA 59 Rocket 2.1 12:53:14 81° SSE 12:53:14 81° SSE 13:03:12 10° SE
USA 234 4.3 13:03:24 10° E 13:07:10 37° E 13:07:10 37° E
CZ-2C R/B 4.4 13:16:35 10° SSE 13:20:31 29° ESE 13:20:31 29° ESE
ATLAS 3B R/B 3.9 13:35:02 30° SSW 13:35:17 30° SSW 13:40:46 10° SE
Cosmos 2369 Rocket 3.5 13:43:16 36° SSE 13:43:16 36° SSE 13:46:38 10° SSE
ATLAS CENTAUR R/B 4.0 13:41:10 68° WSW 13:42:33 76° SSW 13:51:14 10° ESE
Cosmos 2227 Rocket 3.9 13:57:57 10° SSW 14:03:02 31° SE 14:08:04 10° ENE
H-2A R/B 3.0 14:08:12 46° SSE 14:08:12 46° SSE 14:12:01 10° S
SJ 16-02 4.0 14:02:43 10° S 14:12:34 - NE 14:03:16 13° S
Cosmos 2297 Rocket 2.8 14:06:23 10° SSW 14:12:00 54° SE 14:17:34 10° NE
Cosmos 2074 Rocket 4.1 14:14:20 70° S 14:14:20 70° S 14:19:57 10° S
Cosmos 1943 Rocket 4.2 14:13:48 18° SSW 14:13:48 18° SSW 14:17:33 10° SSE
USA 267 3.8 14:10:18 10° ESE 14:16:35 45° NE 14:17:05 45° NNE
Cosmos 44 4.1 14:20:07 54° SE 14:20:07 54° SE 14:25:07 10° ENE
Cosmos 2278 Rocket 4.4 14:23:42 13° SSW 14:24:45 14° SSW 14:27:43 10° SSE
ARIANE 5 R/B 4.4 14:28:04 10° ENE 14:32:19 28° ESE 14:36:37 10° S
Cosmos 1452 Rocket 4.2 14:39:05 46° NE 14:39:54 50° ENE 14:45:02 10° SSE
Cosmos 2056 Rocket 4.0 14:44:31 53° SSW 14:44:31 53° SSW 14:49:11 10° SSE
USA 59 Rocket 2.6 14:39:35 34° WSW 14:44:05 51° SSW 14:53:58 10° SE
Cosmos 1726 Rocket 4.3 14:44:21 10° S 14:48:41 52° ESE 14:50:10 35° NE
Cosmos 2184 Rocket 4.2 14:49:53 53° WSW 14:49:53 53° WSW 14:55:59 10° S
USA 234 3.1 14:46:23 10° NE 14:52:57 70° NW 14:54:33 52° W
Meteor 1-28 Rocket 4.3 14:50:47 10° SSE 14:53:38 41° ESE 14:53:38 41° ESE
Cosmos 1339 Rocket 4.4 14:51:28 10° SSW 14:57:50 67° W 14:59:01 56° NW
Cosmos 1110 Rocket 4.1 14:58:13 55° N 14:59:18 73° ENE 15:04:41 10° SSE
Cosmos 962 Rocket 4.5 14:56:43 38° N 14:59:19 85° E 15:05:39 10° S
Cosmos 2327 Rocket 4.4 14:59:14 52° NNW 15:00:52 80° WSW 15:07:15 10° S
SL-16 R/B 3.2 14:55:57 10° SSE 15:02:04 52° E 15:08:06 10° N
CZ-2C R/B 2.9 14:56:34 10° S 15:02:00 53° WSW 15:02:00 53° WSW
Cosmos 968 Rocket 4.0 15:00:37 10° SSW 15:08:21 32° N 15:11:10 10° NNE
Cosmos 1656 3.7 15:06:43 47° N 15:08:17 74° ENE 15:13:47 10° SSE
Cosmos 1606 Rocket 4.1 15:05:29 10° SSW 15:08:41 46° SSW 15:08:41 46° SSW
USA 281 4.0 15:08:04 10° SE 15:14:31 51° ENE 15:20:54 10° N
SL-12 R/B(2) 4.0 15:08:02 10° SW 15:16:59 79° NW 15:24:32 10° NE
CBERS-1 4.0 15:19:14 32° N 15:21:34 61° WNW 15:26:44 10° SSW
ARGOS 3.1 15:19:19 10° N 15:24:44 68° WNW 15:30:14 10° SSW
Cosmos 2369 Rocket 3.8 15:25:02 19° SW 15:26:06 20° SSW 15:30:15 10° SSE
ATLAS 3B R/B 3.9 15:22:15 11° SW 15:27:40 32° SSE 15:33:12 10° ESE
Cosmos 1892 Rocket 3.8 15:26:54 21° N 15:29:52 73° E 15:34:25 10° SSE
Cosmos 2058 3.3 15:29:04 18° N 15:32:03 63° E 15:36:12 10° SSE
NOSS 3-1 (C) 4.2 15:25:53 10° SW 15:33:02 54° SSE 15:38:42 10° ENE
ATLAS CENTAUR R/B 4.1 15:27:02 22° WSW 15:34:10 63° S 15:41:30 10° E
BlueWalker 3 2.2 15:34:56 49° N 15:35:27 54° NNE 15:39:13 10° ESE
SL-08 RB Rocket 3.5 15:33:43 10° N 15:38:11 68° WNW 15:42:46 10° SSW
CZ-2D R/B 4.4 15:38:50 10° NE 15:42:14 42° ESE 15:45:42 10° S
BREEZE M DEB (TANK) 2.3 15:45:16 38° NE 15:45:16 38° NE 15:47:45 10° E
SJ 16-023.915:49:31N15:49:31N15:39:54SSW
USA 308 3.3 15:46:58 28° E 15:46:58 28° E 15:48:00 10° ESE
Cosmos 1959 Rocket 4.5 15:39:47 10° NNW 15:46:11 75° W 15:52:39 10° S
H-2A R/B 3.6 15:48:43 19° WSW 15:48:43 19° WSW 15:50:50 10° SW
Cosmos 1821 Rocket 4.2 15:40:33 10° N 15:46:47 78° E 15:53:12 10° SSE
Cosmos 2227 Rocket 2.1 15:41:51 10° SW 15:47:34 68° WNW 15:53:12 10° NNE
Cosmos 2263 Rocket 2.6 15:43:57 10° SSW 15:49:35 63° SE 15:55:08 10° NE
Cosmos 371 Rocket 3.5 15:45:05 10° SSW 15:50:02 72° ESE 15:54:56 10° NNE
Cosmos 1980 Rocket 3.8 15:45:01 10° N 15:50:05 35° ENE 15:55:13 10° SE
Cosmos 1782 2.9 15:46:59 10° S 15:50:51 71° ESE 15:54:40 10° NNE
UNK 3.7 15:46:23 10° SSE 15:51:05 89° ENE 15:55:43 10° NNW
H-2A R/B 3.2 15:55:35 31° SW 15:55:35 31° SW 15:57:29 10° SSW
Cosmos 2297 Rocket 2.8 15:50:46 10° SW 15:55:50 33° WNW 16:00:51 10° N
Cosmos 1515 3.3 15:53:55 10° SSW 15:57:27 85° W 16:00:55 10° N
Cosmos 2360 4.2 15:55:16 19° NW 15:59:32 81° WSW 16:05:20 10° SSE
USA 267 3.3 15:53:19 10° ESE 15:59:57 83° SSW 16:04:26 22° WNW
IRS-1C 4.1 15:55:23 10° N 16:00:42 62° WNW 16:06:06 10° SSW
RESURS DK-1 2.3 15:58:27 22° NNW 16:00:58 86° ENE 16:05:06 10° SSE
Cosmos 44 4.0 15:58:32 24° WSW 16:00:59 37° WNW 16:05:50 10° N
NOSS 3-4 (A) 4.3 15:56:53 24° WNW 16:02:26 61° SW 16:10:09 10° SE
NOSS 3-4 (C) 4.3 15:56:57 24° WNW 16:02:30 61° SW 16:10:14 10° SE
SL-8 Rocket 4.3 15:59:28 16° NW 16:04:15 48° WSW 16:10:25 10° S
SMAP 4.1 16:01:52 10° NE 16:06:25 49° ESE 16:11:00 10° S
Cosmos 2058 Rocket 3.2 16:02:33 10° SSW 16:06:52 52° W 16:11:08 10° N
SJ-12 3.7 16:03:01 10° N 16:07:01 78° WNW 16:11:05 10° SSW
Cosmos 1486 Rocket 4.3 16:05:16 10° SSW 16:10:36 73° ESE 16:15:54 10° NNE
Cosmos 1271 Rocket 3.1 16:09:05 28° WNW 16:10:36 42° WSW 16:14:18 10° S
ARIANE 5 R/B 2.6 16:06:13 10° N 16:11:08 53° W 16:16:07 10° SSW
Cosmos 304 Rocket 3.7 16:06:26 10° SSW 16:11:18 89° WNW 16:16:08 10° NNE
Cosmos 1000 Rocket 4.4 16:05:32 10° SSW 16:11:51 82° W 16:18:03 10° N
Cosmos 1666 4.0 16:09:16 10° NNE 16:12:25 38° E 16:15:38 10° SSE
IRS-P3 4.1 16:07:37 10° N 16:12:58 63° WNW 16:18:21 10° SSW
NOAA 12 4.4 16:08:42 10° N 16:13:47 45° W 16:18:57 10° SSW
Cosmos 1500 3.9 16:10:35 10° N 16:13:52 49° E 16:17:12 10° SSE
Cosmos 1302 Rocket 4.0 16:10:24 13° NW 16:15:07 67° WSW 16:20:23 10° SSE
DMSP B5D2-2 4.1 16:14:45 10° SSE 16:20:05 86° WSW 16:25:20 10° NNW
ADEOS Rocket 4.1 16:12:59 10° NNE 16:20:43 66° ESE 16:28:17 10° SSW
Cosmos 1452 Rocket 4.3 16:19:22 20° WNW 16:22:12 33° SW 16:27:00 10° SSE
Cosmos 1602 Rocket 4.5 16:18:49 10° N 16:23:06 52° E 16:27:25 10° SSE
Cosmos 1812 Rocket 3.8 16:21:29 10° S 16:26:03 76° ESE 16:30:33 10° NNE
Cosmos 1626 Rocket 3.5 16:22:52 10° N 16:27:15 88° W 16:31:41 10° S
CZ-2D R/B 3.4 16:23:58 10° N 16:27:58 59° WNW 16:31:57 10° SSW
Cosmos 2219 3.2 16:22:33 10° SW 16:28:11 63° WNW 16:33:44 10° NNE
Cosmos 1697 Rocket 2.7 16:30:54 10° NW 16:36:34 66° SW 16:42:17 10° SSE
USA 59 Rocket 2.9 16:26:31 10° WSW 16:36:36 44° S 16:45:32 10° ESE
USA 234 4.2 16:31:28 10° N 16:36:45 26° NW 16:41:56 10° WSW
SL-24 R/B - RUBIN 2 3.5 16:35:53 10° NW 16:40:10 86° NE 16:44:27 10° SE
GP-B 3.1 16:37:29 10° S 16:41:57 63° W 16:46:21 10° NNW
Cosmos 1727 Rocket 4.5 16:37:16 10° SSW 16:43:10 39° W 16:49:00 10° NNW
Cosmos 2082 3.7 16:38:25 10° SW 16:44:05 68° WNW 16:49:40 10° NNE
Cosmos 1378 3.9 16:41:42 10° SW 16:44:18 23° W 16:46:53 10° NW
BREEZE-M DEB (TANK) 4.1 16:40:58 12° WNW 16:44:34 51° NNE 16:55:46 10° E
Cosmos 1238 Rocket 3.2 16:41:41 10° SSW 16:44:49 34° W 16:48:20 10° NNW
SL-16 R/B 3.1 16:39:49 10° S 16:45:29 37° WSW 16:51:06 10° WNW
Cosmos 1862 3.1 16:42:57 10° NNW 16:46:48 77° W 16:50:46 10° S
NOSS 3-1 (A) 3.8 16:39:57 10° SW 16:47:05 69° SE 16:52:43 10° ENE
Cosmos-2242 3.5 16:47:17 10° SSW 16:51:16 37° W 16:55:11 10° NNW
ATLAS 2AS CENTAUR R/B 4.1 16:45:36 10° N 16:51:51 40° ENE 16:58:23 10° SE
Cosmos 2369 4.1 16:46:18 10° NNW 16:51:56 69° ENE 16:57:38 10° SE
Cosmos 1758 Rocket 3.5 16:48:17 10° NNW 16:52:38 71° WSW 16:57:02 10° S
SeaSat 1 3.8 16:47:54 10° SE 16:52:41 44° ENE 16:57:23 10° N
Cosmos 1933 3.9 16:53:59 10° SSW 16:57:37 33° W 17:01:12 10° NNW
USA 281 3.6 16:52:43 10° SSE 16:59:00 46° SW 17:05:14 10° WNW
PSLV R/B 3.9 17:01:38 10° N 17:05:44 44° W 17:09:55 10° SSW
Meteor 1-26 Rocket 4.3 17:00:41 10° SSW 17:06:02 54° W 17:11:24 10° N
Cosmos 2123 Rocket 4.2 17:00:07 10° SSW 17:06:12 51° W 17:12:16 10° NNW
Cosmos 2227 4.4 17:00:21 10° SSW 17:06:13 82° ESE 17:12:01 10° NNE
SL-16 R/B 4.2 17:01:37 10° N 17:06:40 34° ENE 17:11:45 10° SE
Cosmos 2058 4.5 17:06:12 10° WNW 17:08:59 17° WSW 17:11:46 10° SSW
